Location: Knowlton
(51.2333°N, 1.2667°E)
Time: 02:42:34
(UTC+00:00)

Aureole 1 Rocket - Visible Passes

Search period start: 26 July 2021 00:00
Search period end: 05 August 2021 00:00
Orbit: 377 x 1372 km, 73.9° (Epoch: 25 July)

Date Brightness Start Highest point End Pass type
(mag) Time Alt. Az. Time Alt. Az. Time Alt. Az.
28 Jul 6.7 02:15:57 10° E 02:17:27 11° E 02:19:02 10° ENE visible
29 Jul 6.5 02:09:48 10° ESE 02:12:19 12° E 02:15:00 10° ENE visible
30 Jul 6.4 02:04:00 10° ESE 02:07:10 14° E 02:10:39 10° NE visible
31 Jul 6.3 01:58:22 10° ESE 02:02:03 16° E 02:06:09 10° NE visible
01 Aug 6.2 01:52:48 10° SE 01:56:55 18° E 02:01:34 10° NE visible
01 Aug 4.5 03:33:40 10° SSW 03:39:53 78° ESE 03:47:46 10° NNE visible
02 Aug 6.2 01:47:19 10° SE 01:51:48 20° E 01:56:56 10° NE visible
02 Aug 4.4 03:28:35 10° SSW 03:34:54 84° ESE 03:42:54 10° NNE visible
03 Aug 6.1 01:41:52 10° SE 01:46:42 22° E 01:52:15 10° NE visible
03 Aug 4.4 03:23:30 10° SSW 03:29:57 89° ESE 03:38:03 10° NNE visible
04 Aug 6.0 01:36:28 10° SE 01:41:36 25° E 01:47:32 10° NE visible
04 Aug 4.4 03:18:27 10° SSW 03:25:00 85° WNW 03:33:10 10° NNE visible
